W4SNA-2 Weather Reports


time (UTC)temp
C
wind
direction
speed
KPH
gust
KPH
rain 1hr
cm
rain 24hr
cm
rain mn
cm
humidity
%
barometer
mb
20260901133603 26 0 0.0 3.2 0.00 0.00 0.00 71 1024.1
20260901133103 26 0 0.0 3.2 0.00 0.00 0.00 71 1024.0
20260901132603 26 0 0.0 3.2 0.00 0.00 0.00 72 1024.0
20260901132112 26 0 0.0 3.2 0.00 0.00 0.00 73 1024.0
20260901131605 26 0 0.0 4.8 0.00 0.00 0.00 74 1024.0
20260901131103 26 0 0.0 4.8 0.00 0.00 0.00 74 1024.1
20260901130603 25 0 0.0 3.2 0.00 0.00 0.00 75 1024.1
20260901130148 25 0 0.0 0.0 0.00 0.00 0.00 75 1024.0
20260901130105 25 0 0.0 0.0 0.00 0.00 0.00 75 1024.0
20260901125603 25 0 0.0 0.0 0.00 0.00 0.00 75 1024.0
20260901125103 25 0 0.0 0.0 0.00 0.00 0.00 75 1024.0
20260901124603 25 0 0.0 0.0 0.00 0.00 0.00 76 1024.0
20260901124538 24 0 0.0 0.0 0.00 0.00 0.00 77 1024.0
20260901124110 25 0 0.0 0.0 0.00 0.00 0.00 76 1024.1
20260901123605 25 0 0.0 0.0 0.00 0.00 0.00 76 1024.0
20260901123103 24 0 0.0 0.0 0.00 0.00 0.00 78 1024.0
20260901122603 24 0 0.0 0.0 0.00 0.00 0.00 77 1024.0
20260901122103 24 0 0.0 0.0 0.00 0.00 0.00 77 1024.0
20260901121606 25 0 0.0 4.8 0.00 0.00 0.00 76 1023.9
20260901121111 25 0 0.0 4.8 0.00 0.00 0.00 75 1023.8
20260901120604 25 0 0.0 0.0 0.00 0.00 0.00 74 1023.7
20260901120103 24 0 0.0 0.0 0.00 0.00 0.00 74 1023.7
20260901115605 24 0 0.0 0.0 0.00 0.00 0.00 74 1023.6
20260901115106 24 0 0.0 0.0 0.00 0.00 0.00 74 1023.6
20260901114603 24 0 0.0 0.0 0.00 0.00 0.00 74 1023.5
20260901114103 24 0 0.0 0.0 0.00 0.00 0.00 75 1023.5
20260901113603 24 0 0.0 0.0 0.00 0.00 0.00 76 1023.4
20260901113103 24 0 0.0 0.0 0.00 0.00 0.00 76 1023.3
20260901112609 24 0 0.0 0.0 0.00 0.00 0.00 76 1023.2
20260901112103 24 0 0.0 0.0 0.00 0.00 0.00 76 1023.2
20260901111405 24 0 0.0 4.8 0.00 0.00 0.00 76 1023.1
20260901110904 24 0 0.0 4.8 0.00 0.00 0.00 76 1023.2
20260901110134 23 313 3.2 6.4 0.00 0.00 0.00 76 1023.0
20260901105636 23 313 3.2 8.0 0.00 0.00 0.00 76 1023.0
20260901105137 23 313 4.8 8.0 0.00 0.00 0.00 76 1023.0
20260901104634 23 313 4.8 8.0 0.00 0.00 0.00 76 1023.0
20260901104134 24 313 4.8 8.0 0.00 0.00 0.00 76 1022.9
20260901103634 24 313 4.8 6.4 0.00 0.00 0.00 76 1022.9
20260901103134 24 313 3.2 6.4 0.00 0.00 0.00 75 1022.8
20260901102634 24 313 3.2 4.8 0.00 0.00 0.00 75 1022.7
20260901102134 24 0 0.0 0.0 0.00 0.00 0.00 75 1022.8
20260901101635 24 0 0.0 0.0 0.00 0.00 0.00 75 1022.8
20260901101135 24 0 0.0 0.0 0.00 0.00 0.00 75 1022.7
20260901100640 24 0 0.0 0.0 0.00 0.00 0.00 75 1022.8
20260901100137 24 0 0.0 0.0 0.00 0.00 0.00 76 1022.7
20260901095634 24 0 0.0 0.0 0.00 0.00 0.00 75 1022.7
20260901095135 24 0 0.0 0.0 0.00 0.00 0.00 75 1022.7
20260901094634 25 0 0.0 0.0 0.00 0.00 0.00 75 1022.7
20260901094136 24 0 0.0 0.0 0.00 0.00 0.00 75 1022.7
20260901093635 24 0 0.0 0.0 0.00 0.00 0.00 75 1022.7
20260901093134 24 0 0.0 0.0 0.00 0.00 0.00 75 1022.7
20260901092634 24 0 0.0 0.0 0.00 0.00 0.00 75 1022.7
20260901092138 24 0 0.0 0.0 0.00 0.00 0.00 76 1022.8
20260901091634 23 0 0.0 0.0 0.00 0.00 0.00 77 1022.8
20260901091134 23 0 0.0 0.0 0.00 0.00 0.00 77 1022.8
20260901090634 23 0 0.0 0.0 0.00 0.00 0.00 77 1022.9
20260901090135 23 0 0.0 0.0 0.00 0.00 0.00 78 1022.8
20260901085634 23 0 0.0 0.0 0.00 0.00 0.00 78 1022.8
20260901085134 23 0 0.0 0.0 0.00 0.00 0.00 79 1022.9
20260901084635 23 0 0.0 0.0 0.00 0.00 0.00 79 1022.8
20260901084134 23 0 0.0 0.0 0.00 0.00 0.00 78 1022.8
20260901083634 23 0 0.0 0.0 0.00 0.00 0.00 78 1022.8
20260901083134 23 0 0.0 0.0 0.00 0.00 0.00 78 1022.8
20260901082635 23 0 0.0 6.4 0.00 0.00 0.00 78 1022.7
20260901082135 23 0 0.0 8.0 0.00 0.00 0.00 77 1022.8
20260901081634 24 313 4.8 8.0 0.00 0.00 0.00 76 1022.9
20260901081135 24 0 0.0 0.0 0.00 0.00 0.00 75 1022.9
20260901080634 24 0 0.0 0.0 0.00 0.00 0.00 75 1022.8
20260901080134 24 0 0.0 0.0 0.00 0.00 0.00 76 1022.9
20260901075634 24 0 0.0 0.0 0.00 0.00 0.00 75 1023.0
20260901075134 24 0 0.0 0.0 0.00 0.00 0.00 75 1022.9
20260901074634 24 0 0.0 0.0 0.00 0.00 0.00 75 1022.9
20260901074135 24 0 0.0 0.0 0.00 0.00 0.00 75 1023.0
20260901073634 24 0 0.0 3.2 0.00 0.00 0.00 75 1023.0
20260901073134 24 0 0.0 4.8 0.00 0.00 0.00 75 1023.1
20260901072635 24 313 1.6 4.8 0.00 0.00 0.00 75 1023.0
20260901072135 24 313 1.6 8.0 0.00 0.00 0.00 75 1023.1
20260901071635 24 313 3.2 8.0 0.00 0.00 0.00 75 1023.2
20260901071134 24 313 3.2 8.0 0.00 0.00 0.00 75 1023.2
20260901070635 24 313 3.2 8.0 0.00 0.00 0.00 75 1023.3
20260901070308 25 313 3.2 8.0 0.00 0.00 0.00 75 1023.3
20260901070134 25 313 3.2 8.0 0.00 0.00 0.00 75 1023.3
20260901065634 25 313 3.2 6.4 0.00 0.00 0.00 74 1023.2
20260901065134 25 0 0.0 8.0 0.00 0.00 0.00 74 1023.3
20260901064634 25 0 0.0 8.0 0.00 0.00 0.00 74 1023.4
20260901064134 25 313 1.6 4.8 0.00 0.00 0.00 75 1023.4
20260901063634 25 313 3.2 4.8 0.00 0.00 0.00 74 1023.5
20260901063134 25 313 3.2 8.0 0.00 0.00 0.00 74 1023.5
20260901062635 25 313 3.2 8.0 0.00 0.00 0.00 74 1023.4
20260901062136 25 313 3.2 8.0 0.00 0.00 0.00 74 1023.4
20260901061635 25 313 1.6 9.7 0.00 0.00 0.00 74 1023.3
20260901061138 25 313 3.2 9.7 0.00 0.00 0.00 74 1023.4
20260901060635 25 313 3.2 8.0 0.00 0.00 0.00 74 1023.5
20260901060137 25 313 4.8 6.4 0.00 0.00 0.00 73 1023.5
20260901055635 25 313 3.2 6.4 0.00 0.00 0.00 73 1023.5
20260901055133 25 313 3.2 9.7 0.00 0.00 0.00 72 1023.6
20260901054635 25 0 0.0 9.7 0.00 0.00 0.00 72 1023.7
20260901054135 25 0 0.0 9.7 0.00 0.00 0.00 73 1023.7
20260901053635 25 313 1.6 9.7 0.00 0.00 0.00 74 1023.7
20260901053135 25 313 3.2 6.4 0.00 0.00 0.00 74 1023.7
20260901052634 25 313 3.2 8.0 0.00 0.00 0.00 74 1023.7
20260901052140 25 313 1.6 8.0 0.00 0.00 0.00 74 1023.8
20260901051634 25 313 1.6 8.0 0.00 0.00 0.00 74 1023.7
20260901051138 25 0 0.0 6.4 0.00 0.00 0.00 74 1023.6
20260901050637 25 0 0.0 6.4 0.00 0.00 0.00 74 1023.8
20260901050135 25 313 1.6 4.8 0.00 0.00 0.00 74 1023.7
20260901045635 25 0 0.0 4.8 0.00 0.00 0.00 74 1023.7
20260901045135 25 0 0.0 4.8 0.00 0.00 0.00 75 1023.7
20260901044635 25 0 0.0 8.0 0.00 0.00 0.00 75 1023.6
20260901044135 25 313 1.6 8.0 0.00 0.00 0.00 75 1023.6
20260901043634 25 313 3.2 8.0 0.00 0.00 0.00 75 1023.6
20260901043136 25 313 1.6 8.0 0.00 0.00 0.00 74 1023.6
20260901042635 25 0 0.0 8.0 0.00 0.00 0.00 74 1023.6
20260901042522 25 0 0.0 6.4 0.00 0.00 0.00 74 1023.7
20260901042134 25 0 0.0 8.0 0.00 0.00 0.00 73 1023.6
20260901041633 25 0 0.0 6.4 0.00 0.00 0.00 74 1023.7
20260901041136 25 0 0.0 1.6 0.00 0.00 0.00 74 1023.6
20260901040635 25 0 0.0 1.6 0.00 0.00 0.00 73 1023.5
20260901040134 25 0 0.0 3.2 0.00 0.00 0.00 73 1023.6
20260901035634 25 0 0.0 3.2 0.00 0.00 0.00 74 1023.6
20260901035134 25 0 0.0 1.6 0.00 0.00 0.00 74 1023.6
20260901034633 25 0 0.0 3.2 0.00 0.00 0.00 74 1023.6
20260901034134 25 0 0.0 4.8 0.00 0.00 0.00 74 1023.6
20260901033633 25 0 0.0 4.8 0.00 0.00 0.00 75 1023.6
20260901033134 25 0 0.0 8.0 0.00 0.00 0.00 75 1023.6
20260901032633 25 313 1.6 8.0 0.00 0.00 0.00 75 1023.6
20260901032133 25 0 0.0 6.4 0.00 0.00 0.00 76 1023.6
20260901031633 25 313 1.6 6.4 0.00 0.00 0.00 77 1023.7
20260901031133 25 313 1.6 8.0 0.00 0.00 0.00 77 1023.8
20260901030633 25 313 3.2 12.9 0.00 0.00 0.00 77 1023.8
20260901030134 25 313 3.2 12.9 0.00 0.00 0.00 79 1023.9
20260901025634 25 313 3.2 9.7 0.00 0.00 0.00 80 1023.8
20260901025133 25 313 3.2 8.0 0.00 0.00 0.00 79 1023.8
20260901024638 25 313 3.2 8.0 0.00 0.00 0.00 79 1023.7
20260901024133 25 313 3.2 6.4 0.00 0.00 0.00 78 1023.7
20260901023618 25 313 3.2 8.0 0.00 0.00 0.00 77 1023.7
20260901023024 25 313 3.2 6.4 0.00 0.00 0.00 76 1023.7
20260901022158 25 313 3.2 8.0 0.00 0.00 0.00 73 1023.6
20260901021657 25 313 3.2 8.0 0.00 0.00 0.00 72 1023.6
20260901021158 25 313 4.8 8.0 0.00 0.00 0.00 73 1023.6
20260901020657 25 313 3.2 12.9 0.00 0.00 0.00 76 1023.5
20260901020157 25 313 4.8 12.9 0.00 0.00 0.00 77 1023.5
20260901015657 25 313 4.8 9.7 0.00 0.00 0.00 76 1023.4
20260901015205 25 313 6.4 9.7 0.00 0.00 0.00 76 1023.4
20260901014657 25 313 6.4 9.7 0.00 0.00 0.00 75 1023.4
20260901014158 25 313 4.8 9.7 0.00 0.00 0.00 75 1023.4
20260901013657 25 313 4.8 9.7 0.00 0.00 0.00 75 1023.3
20260901013158 25 313 4.8 12.9 0.00 0.00 0.00 79 1023.3
20260901012658 25 313 6.4 12.9 0.00 0.00 0.00 80 1023.3
20260901012158 25 313 3.2 12.9 0.00 0.00 0.00 81 1023.2
20260901011657 25 313 4.8 12.9 0.00 0.00 0.00 78 1023.4
20260901011158 26 313 8.0 12.9 0.00 0.00 0.00 75 1023.3
20260901010657 26 313 4.8 12.9 0.00 0.00 0.00 72 1023.2
20260901010158 26 313 4.8 12.9 0.00 0.00 0.00 71 1023.1
20260901005657 26 313 1.6 12.9 0.00 0.00 0.00 71 1023.1
20260901005158 26 313 3.2 12.9 0.00 0.00 0.00 71 1023.0
20260901004659 26 313 1.6 6.4 0.00 0.00 0.00 71 1023.0
20260901004159 26 0 0.0 6.4 0.00 0.00 0.00 71 1023.0
20260901003339 26 313 1.6 9.7 0.00 0.00 0.00 73 1022.9
20260901002839 25 313 1.6 9.7 0.00 0.00 0.00 74 1022.9
20260901002338 25 313 3.2 9.7 0.00 0.00 0.00 76 1022.9
20260901001838 25 313 3.2 12.9 0.00 0.00 0.00 78 1022.9
20260901001338 25 313 4.8 12.9 0.00 0.00 0.00 78 1022.8
20260901000840 26 313 4.8 9.7 0.00 0.00 0.00 78 1022.8
20260901000339 26 313 3.2 8.0 0.00 0.00 0.00 79 1022.8
20260831235838 26 313 1.6 8.0 0.00 0.00 0.00 77 1022.7
20260831235340 26 0 0.0 4.8 0.00 0.00 0.00 75 1022.7
20260831234840 26 313 1.6 8.0 0.00 0.00 0.00 74 1022.7
20260831234338 26 313 1.6 8.0 0.00 0.00 0.00 76 1022.7
20260831233838 26 0 0.0 3.2 0.00 0.00 0.00 74 1022.7
20260831233338 27 0 0.0 0.0 0.00 0.00 0.00 72 1022.7
20260831232838 27 0 0.0 0.0 0.00 0.00 0.00 72 1022.7
20260831232338 27 0 0.0 0.0 0.00 0.00 0.00 71 1022.7
20260831231838 27 0 0.0 0.0 0.00 0.00 0.00 72 1022.8
20260831231339 27 0 0.0 0.0 0.00 0.00 0.00 70 1022.9
20260831230838 27 0 0.0 0.0 0.00 0.00 0.00 71 1022.9
20260831230338 27 0 0.0 0.0 0.00 0.00 0.00 70 1023.0
20260831225841 27 0 0.0 0.0 0.00 0.00 0.00 70 1022.9
20260831225338 28 0 0.0 1.6 0.00 0.00 0.00 69 1023.0
20260831224838 28 0 0.0 1.6 0.00 0.00 0.00 67 1023.0
20260831224338 28 0 0.0 0.0 0.00 0.00 0.00 67 1022.9
20260831223838 28 0 0.0 0.0 0.00 0.00 0.00 67 1023.0
20260831223338 28 0 0.0 0.0 0.00 0.00 0.00 65 1023.0
20260831222838 28 0 0.0 0.0 0.00 0.00 0.00 64 1023.0
20260831222338 28 0 0.0 0.0 0.00 0.00 0.00 64 1023.0
20260831221838 28 0 0.0 0.0 0.00 0.00 0.00 64 1023.0
20260831221338 28 0 0.0 0.0 0.00 0.00 0.00 64 1022.0
20260831220838 28 0 0.0 1.6 0.00 0.00 0.00 65 1022.1
20260831220338 28 0 0.0 3.2 0.00 0.00 0.00 65 1022.1
20260831215838 28 0 0.0 3.2 0.00 0.00 0.00 66 1022.1
20260831215338 28 0 0.0 3.2 0.00 0.00 0.00 64 1022.1
20260831214838 29 0 0.0 4.8 0.00 0.00 0.00 61 1022.1
20260831214338 29 0 0.0 4.8 0.00 0.00 0.00 64 1022.1
20260831213839 29 0 0.0 4.8 0.00 0.00 0.00 63 1022.2
20260831213341 29 0 0.0 1.6 0.00 0.00 0.00 61 1022.1
20260831212838 29 0 0.0 0.0 0.00 0.00 0.00 62 1022.2
20260831212340 29 0 0.0 0.0 0.00 0.00 0.00 60 1022.3
20260831211838 29 0 0.0 1.6 0.00 0.00 0.00 63 1022.3
20260831211338 29 0 0.0 4.8 0.00 0.00 0.00 63 1022.3
20260831210838 29 0 0.0 4.8 0.00 0.00 0.00 62 1022.3
20260831210338 30 313 1.6 4.8 0.00 0.00 0.00 61 1022.3
20260831205838 30 0 0.0 4.8 0.00 0.00 0.00 60 1022.3
20260831205340 31 0 0.0 1.6 0.00 0.00 0.00 56 1022.3
20260831204838 31 0 0.0 1.6 0.00 0.00 0.00 56 1022.4
20260831204338 31 0 0.0 3.2 0.00 0.00 0.00 55 1022.5
20260831203838 31 0 0.0 3.2 0.00 0.00 0.00 56 1022.5
20260831203338 31 0 0.0 3.2 0.00 0.00 0.00 55 1022.4
20260831202838 31 0 0.0 3.2 0.00 0.00 0.00 54 1022.4
20260831202338 30 0 0.0 3.2 0.00 0.00 0.00 55 1022.5
20260831201839 30 0 0.0 3.2 0.00 0.00 0.00 57 1022.6
20260831201338 30 0 0.0 3.2 0.00 0.00 0.00 55 1022.7
20260831200839 30 0 0.0 3.2 0.00 0.00 0.00 59 1022.7
20260831200338 30 0 0.0 4.8 0.00 0.00 0.00 59 1022.8
20260831195838 30 0 0.0 4.8 0.00 0.00 0.00 61 1022.8
20260831195026 30 0 0.0 4.8 0.00 0.00 0.00 59 1022.9
20260831194525 29 0 0.0 3.2 0.00 0.00 0.00 65 1023.0
20260831194025 29 0 0.0 3.2 0.00 0.00 0.00 62 1022.9
20260831193525 28 0 0.0 1.6 0.00 0.00 0.00 64 1022.9
20260831193026 28 0 0.0 1.6 0.00 0.00 0.00 65 1023.0
20260831192525 28 0 0.0 3.2 0.00 0.00 0.00 64 1023.0
20260831192028 28 0 0.0 3.2 0.00 0.00 0.00 63 1023.1
20260831191525 28 0 0.0 3.2 0.00 0.00 0.00 67 1023.2
20260831191025 27 0 0.0 3.2 0.00 0.00 0.00 67 1023.1
20260831190526 27 0 0.0 1.6 0.00 0.00 0.00 68 1023.1
20260831190025 27 0 0.0 1.6 0.00 0.00 0.00 69 1023.2
20260831185528 27 0 0.0 0.0 0.00 0.00 0.00 68 1023.3
20260831185025 27 0 0.0 4.8 0.00 0.00 0.00 69 1023.3
20260831184526 27 0 0.0 4.8 0.00 0.00 0.00 68 1023.4
20260831184026 27 0 0.0 3.2 0.00 0.00 0.00 71 1023.4
20260831183526 26 0 0.0 0.0 0.00 0.00 0.00 70 1023.4
20260831183025 26 0 0.0 0.0 0.00 0.00 0.00 69 1023.5
20260831182525 25 0 0.0 3.2 0.00 0.00 0.00 69 1023.6
20260831182025 25 0 0.0 12.9 0.00 0.00 0.00 67 1023.6
20260831181525 25 313 1.6 14.5 0.00 0.00 0.00 67 1023.7
20260831181025 24 313 4.8 16.1 0.00 0.00 0.00 77 1023.8
20260831180525 25 313 6.4 16.1 0.00 0.00 0.00 79 1023.7
20260831180026 25 311 8.0 17.7 0.00 0.00 0.00 75 1023.7
20260831175525 26 309 9.7 17.7 0.00 0.00 0.00 70 1023.7
20260831175026 28 295 6.4 11.3 0.00 0.00 0.00 68 1023.8
20260831174525 29 0 0.0 0.0 0.00 0.00 0.00 64 1023.9
20260831173805 29 0 0.0 6.4 0.00 0.00 0.00 63 1023.9
20260831173305 29 295 1.6 6.4 0.00 0.00 0.00 62 1023.8
20260831172805 29 295 3.2 6.4 0.00 0.00 0.00 59 1023.9
20260831172308 29 295 1.6 6.4 0.00 0.00 0.00 64 1023.8
20260831171811 28 295 3.2 6.4 0.00 0.00 0.00 63 1023.9
20260831171310 28 295 3.2 6.4 0.00 0.00 0.00 65 1023.9
20260831170805 28 0 0.0 6.4 0.00 0.00 0.00 69 1023.8
20260831170305 28 0 0.0 11.3 0.00 0.00 0.00 67 1023.8
20260831165805 28 295 1.6 11.3 0.00 0.00 0.00 66 1023.8
20260831165315 28 0 0.0 6.4 0.00 0.00 0.00 68 1023.8
20260831164805 28 0 0.0 6.4 0.00 0.00 0.00 68 1023.9
20260831164447 28 0 0.0 6.4 0.00 0.00 0.00 68 1024.0
20260831164305 28 0 0.0 6.4 0.00 0.00 0.00 68 1024.0
20260831163805 28 0 0.0 6.4 0.00 0.00 0.00 69 1024.1
20260831163305 28 0 0.0 11.3 0.00 0.00 0.00 70 1024.1
20260831162805 28 295 1.6 11.3 0.00 0.00 0.00 70 1024.2
20260831162306 28 295 3.2 11.3 0.00 0.00 0.00 69 1024.2
20260831161805 28 295 1.6 11.3 0.00 0.00 0.00 69 1024.2
20260831161305 28 0 0.0 6.4 0.00 0.00 0.00 68 1024.3
20260831160805 28 0 0.0 6.4 0.00 0.00 0.00 67 1024.2
20260831160305 28 0 0.0 1.6 0.00 0.00 0.00 71 1024.1
20260831155845 28 0 0.0 4.8 0.00 0.00 0.00 70 1024.2
20260831155805 28 0 0.0 4.8 0.00 0.00 0.00 70 1024.2
20260831155306 28 0 0.0 4.8 0.00 0.00 0.00 69 1024.3
20260831154806 28 0 0.0 0.0 0.00 0.00 0.00 68 1024.2
20260831154305 27 0 0.0 4.8 0.00 0.00 0.00 72 1024.3
20260831153805 27 0 0.0 4.8 0.00 0.00 0.00 75 1024.3
20260831153305 27 0 0.0 3.2 0.00 0.00 0.00 76 1024.3
20260831152805 27 0 0.0 6.4 0.00 0.00 0.00 75 1024.3
20260831152308 26 295 3.2 8.0 0.00 0.00 0.00 75 1024.3
20260831151805 26 295 1.6 8.0 0.00 0.00 0.00 75 1024.3
20260831151307 26 0 0.0 6.4 0.00 0.00 0.00 76 1024.3
20260831150806 26 0 0.0 6.4 0.00 0.00 0.00 75 1024.4
20260831150307 26 0 0.0 4.8 0.00 0.00 0.00 77 1024.3
20260831145807 26 0 0.0 6.4 0.00 0.00 0.00 76 1024.3
20260831145307 26 0 0.0 6.4 0.00 0.00 0.00 75 1024.3
20260831144805 26 0 0.0 6.4 0.00 0.00 0.00 75 1024.3
20260831144305 26 295 1.6 12.9 0.00 0.00 0.00 75 1024.3
20260831143805 26 0 0.0 12.9 0.00 0.00 0.00 76 1024.3
20260831143305 26 0 0.0 4.8 0.00 0.00 0.00 76 1024.3
20260831142807 26 0 0.0 3.2 0.00 0.00 0.00 76 1024.2
20260831142306 26 0 0.0 0.0 0.00 0.00 0.00 79 1024.2
20260831141804 25 0 0.0 4.8 0.00 0.00 0.00 80 1024.2
20260831141308 25 0 0.0 4.8 0.00 0.00 0.00 81 1024.2
20260831140805 25 0 0.0 6.4 0.00 0.00 0.00 81 1024.1
20260831140307 24 0 0.0 6.4 0.00 0.00 0.00 82 1024.0
20260831135807 25 0 0.0 6.4 0.00 0.00 0.00 82 1024.0
20260831135315 25 0 0.0 4.8 0.00 0.00 0.00 81 1024.1
20260831134809 25 0 0.0 4.8 0.00 0.00 0.00 81 1024.0
20260831134306 24 0 0.0 4.8 0.00 0.00 0.00 81 1024.0
20260831133806 24 0 0.0 1.6 0.00 0.00 0.00 82 1024.1